Lid_Strength_Index
22 19 19 19 20 21 21 20 21 18 19 14 17 16 15 15 14 16 17 18 18 18 18 15 15 15 15 14 14 12 12 12 11 10 10 10 11 11 10 10 10 10 10 10
22 21 20 21 19 20 19 22 21 19 18 13 12 14 16 16 16 16 16 17 18 17 17 17 15 16 15 17 14 13 13 12 12 11 11 11 11 11 11 11 10 10 10 10
19 23 21 20 19 19 20 19 19 20 15 15 15 14 14 14 15 16 15 15 15 15 16 17 17 15 16 15 14 14 14 14 14 14 12 12 11 11 11 11 11 11 11 10
19 21 20 16 16 17 18 17 17 17 15 15 14 13 13 13 13 14 14 14 13 14 15 16 16 17 16 15 15 14 14 14 14 14 14 13 13 12 11 11 11 11 11 11
19 24 18 15 17 18 18 15 15 16 15 14 14 14 13 13 13 12 13 13 13 13 14 15 16 16 16 16 15 15 14 14 14 14 15 15 14 14 14 14 13 12 12 12
18 20 20 15 16 15 16 17 14 15 15 16 15 17 16 14 14 13 12 12 13 13 15 15 16 16 16 16 16 16 15 15 15 15 14 15 15 15 15 15 14 14 14 14
18 18 17 14 16 16 18 14 16 16 15 15 16 15 15 14 14 14 13 13 13 14 15 15 16 16 16 16 16 15 15 15 16 15 15 15 15 15 15 15 16 16 16 15
18 19 20 15 17 16 13 16 16 16 17 15 15 16 16 16 15 14 14 14 14 15 16 16 16 16 17 17 16 17 17 17 18 19 16 16 18 18 18 17 18 19 18 18
17 17 14 15 13 14 14 15 15 16 16 15 15 15 15 15 15 14 14 14 14 15 16 19 18 17 18 19 19 20 20 19 20 19 18 18 19 20 19 19 19 19 18 18
17 15 15 14 13 14 14 14 14 15 15 15 15 15 15 15 15 15 16 16 17 17 17 17 19 18 17 19 19 19 20 20 20 20 20 21 18 17 19 20 20 18 18 18
19 16 15 14 14 13 13 13 14 15 14 14 15 15 15 15 16 16 16 18 18 17 16 16 18 18 19 19 19 19 19 20 19 19 19 19 19 18 17 18 17 19 19 19
17 14 12 11 12 13 13 13 13 14 15 15 15 15 16 15 16 17 17 18 17 17 18 17 17 17 19 18 18 18 18 19 19 19 19 19 19 19 15 14 14 13 13 16
13 13 13 15 15 15 14 14 14 14 14 15 15 15 17 16 17 18 18 16 15 16 17 17 16 16 18 18 18 18 17 18 18 18 18 19 20 19 18 18 13 13 13 12
14 14 14 16 14 17 17 17 18 18 18 17 16 18 18 18 18 18 17 16 15 16 17 16 16 15 17 17 17 17 18 19 18 18 18 18 18 18 19 20 18 18 15 13
13 14 13 16 18 19 21 21 19 18 19 19 20 18 18 17 16 15 15 16 18 18 15 16 16 16 18 17 17 17 17 18 18 18 18 18 18 19 18 18 18 18 23 18
17 18 18 18 18 20 21 21 18 17 18 20 20 20 18 18 17 17 16 17 15 15 15 17 17 16 17 16 16 17 17 18 19 18 20 20 19 18 18 17 18 18 19 17
19 20 20 22 21 21 22 24 20 21 22 23 22 23 21 20 19 16 16 17 16 15 15 16 17 17 17 16 16 16 17 17 17 18 18 17 17 17 17 18 17 17 16 17
19 19 20 20 21 23 24 24 25 25 25 24 25 25 22 18 20 20 18 18 16 17 19 18 17 16 16 16 16 16 16 15 16 16 16 16 16 16 17 17 17 17 16 18
23 22 22 23 24 26 26 25 27 27 26 25 25 25 23 24 25 23 20 20 21 19 22 20 18 17 17 17 16 16 16 15 16 16 16 16 16 16 16 16 16 16 16 18
27 26 24 25 25 25 25 25 26 27 26 26 26 26 26 26 25 23 22 24 25 24 23 21 19 19 18 18 17 17 16 16 16 16 16 16 16 16 16 16 17 17 17 17
28 26 26 25 26 27 27 27 26 26 26 26 27 28 29 27 25 25 24 25 25 24 23 23 22 24 23 20 19 17 17 16 16 16 16 16 16 16 17 17 17 18 18 18
30 27 27 27 27 27 27 27 27 26 26 26 26 27 26 26 26 26 26 27 25 24 24 24 22 20 19 19 18 17 17 17 17 17 17 17 17 17 17 17 17 17 17 17
29 30 30 29 28 29 29 28 27 27 26 27 27 27 26 27 27 27 29 26 25 25 25 24 23 22 21 22 21 21 21 21 21 20 19 19 18 18 18 18 18 18 18 19
27 27 30 30 29 28 27 28 28 26 26 26 26 26 26 27 27 26 26 25 26 26 26 25 24 23 24 24 24 24 24 24 23 23 23 22 22 22 22 22 23 22 23 23
25 25 25 26 26 26 27 27 26 26 27 26 26 26 26 25 26 27 27 27 26 27 27 25 24 24 25 25 25 25 24 24 24 24 24 24 24 24 24 24 23 23 23 22
25 24 25 25 25 25 25 24 25 27 28 27 27 26 26 26 26 27 27 27 27 26 26 26 26 26 26 26 25 25 25 24 24 23 23 23 23 23 23 23 23 23 22 22
25 25 26 26 25 25 25 25 25 26 27 27 27 27 27 28 27 27 27 27 27 27 27 26 26 26 26 25 25 25 24 24 24 24 23 23 23 22 22 22 22 22 21 21